Location: Le Rocchette
(44.3500°N, 7.8333°E)
Time: 10:10:46
(UTC+00:00)

Cosmos 2333 Rocket - Pass Details

Date: 17 November 2019
Orbit: 837 x 865 km, 70.8° (Epoch: 16 December)

Event Time Altitude Azimuth Distance (km) Brightness Sun altitude
Rises 05:32:10 0° 338° (NNW) 3,453 5.0 -9.9°
Reaches altitude 10° 05:34:47 10° 346° (NNW) 2,514 4.4 -9.4°
Maximum altitude 05:40:17 43° 57° (ENE) 1,200 3.4 -8.5°
Drops below altitude 10° 05:45:44 10° 128° (SE) 2,500 6.0 -7.6°
Sets 05:48:19 0° 135° (SE) 3,431 6.7 -7.1°
